,,Stat6,,Stat2,,Stat8,,Stat9,,Stat10,,Wind1,,Wind1,
time,status,PA1M_AVG,status,PR1M_SUM,status,RH1M_AVG,status,SR1M_AVG,status,TA1M_AVG,status,W1dAve1m,status,W1sAve1m,
2007-06-23, 00:00:00,VALID,915.508,VALID,0,VALID,100,VALID,-0.0169808,VALID,21.4992,VALID,58,VALID,0.514915,
2007-06-23, 00:01:00,VALID,915.495,VALID,0,VALID,100,VALID,0,VALID,21.5157,VALID,50,VALID,0.617018,
2007-06-23, 00:02:00,VALID,915.479,VALID,0,VALID,100,VALID,-0.0169808,VALID,21.5157,VALID,44,VALID,0.439596,
2007-06-23, 00:03:00,VALID,915.46,VALID,0,VALID,100,VALID,-0.0169808,VALID,21.5187,VALID,44,VALID,0.347656,
2007-06-23, 00:04:00,VALID,915.449,VALID,0,VALID,100,VALID,0,VALID,21.5289,VALID,44,VALID,0.186228,
2007-06-23, 00:05:00,VALID,915.414,VALID,0,VALID,100,VALID,-0.0169808,VALID,21.5584,VALID,44,VALID,0,
2007-06-23, 00:06:00,VALID,915.408,VALID,0,VALID,100,VALID,-0.0339617,VALID,21.5682,VALID,44,VALID,0.0556402,
2007-06-23, 00:07:00,VALID,915.393,VALID,0,VALID,100,VALID,0,VALID,21.5804,VALID,41,VALID,0.40346,
2007-06-23, 00:08:00,VALID,915.391,VALID,0,VALID,100,VALID,0,VALID,21.5971,VALID,39,VALID,0.306362,
2007-06-23, 00:09:00,VALID,915.39,VALID,0,VALID,100,VALID,-0.0339617,VALID,21.6196,VALID,39,VALID,0.352095,
2007-06-23, 00:10:00,VALID,915.397,VALID,0,VALID,100,VALID,0,VALID,21.6388,VALID,38,VALID,0.352805,
2007-06-23, 00:11:00,VALID,915.388,VALID,0,VALID,100,VALID,0,VALID,21.6361,VALID,38,VALID,0.187686,
2007-06-23, 00:12:00,VALID,915.393,VALID,0,VALID,100,VALID,0,VALID,21.6166,VALID,38,VALID,0.142361,
2007-06-23, 00:13:00,VALID,915.412,VALID,0,VALID,100,VALID,-0.0169808,VALID,21.6001,VALID,38,VALID,0.234747,
2007-06-23, 00:14:00,VALID,915.419,VALID,0,VALID,100,VALID,-0.0169808,VALID,21.5936,VALID,38,VALID,0.291193,
2007-06-23, 00:15:00,VALID,915.419,VALID,0,VALID,100,VALID,0,VALID,21.5942,VALID,38,VALID,0.51391,
2007-06-23, 00:16:00,VALID,915.424,VALID,0,VALID,100,VALID,-0.0509425,VALID,21.5836,VALID,37,VALID,0.570139,
2007-06-23, 00:17:00,VALID,915.426,VALID,0,VALID,100,VALID,0,VALID,21.5771,VALID,37,VALID,0.487165,
2007-06-23, 00:18:00,VALID,915.442,VALID,0,VALID,100,VALID,0,VALID,21.5868,VALID,36,VALID,0.59003,
2007-06-23, 00:19:00,VALID,915.45,VALID,0,VALID,100,VALID,0,VALID,21.5812,VALID,35,VALID,0.529154,
2007-06-23, 00:20:00,VALID,915.44,VALID,0,VALID,100,VALID,-0.0169808,VALID,21.5614,VALID,19,VALID,0.780007,
2007-06-23, 00:21:00,VALID,915.428,VALID,0,VALID,100,VALID,0,VALID,21.5187,VALID,3,VALID,0.932173,
2007-06-23, 00:22:00,VALID,915.423,VALID,0,VALID,100,VALID,0,VALID,21.5154,VALID,360,VALID,1.03441,
2007-06-23, 00:23:00,VALID,915.418,VALID,0,VALID,100,VALID,0.0169808,VALID,21.4959,VALID,9,VALID,1.29648,
2007-06-23, 00:24:00,VALID,915.412,VALID,0,VALID,100,VALID,-0.0169808,VALID,21.4894,VALID,358,VALID,1.49486,
2007-06-23, 00:25:00,VALID,915.426,VALID,0,VALID,100,VALID,-0.0169808,VALID,21.49,VALID,353,VALID,1.46076,
2007-06-23, 00:26:00,VALID,915.446,VALID,0,VALID,100,VALID,-0.0169808,VALID,21.503,VALID,9,VALID,1.37518,
2007-06-23, 00:27:00,VALID,915.481,VALID,0,VALID,100,VALID,0,VALID,21.5024,VALID,342,VALID,0.931597,
2007-06-23, 00:28:00,VALID,915.513,VALID,0,VALID,100,VALID,0,VALID,21.5124,VALID,345,VALID,0.991477,
2007-06-23, 00:29:00,VALID,915.55,VALID,0,VALID,100,VALID,-0.0169808,VALID,21.5119,VALID,8,VALID,1.16903,
2007-06-23, 00:30:00,VALID,915.559,VALID,0,VALID,100,VALID,0,VALID,21.5219,VALID,27,VALID,1.04524,
2007-06-23, 00:31:00,VALID,915.596,VALID,0,VALID,100,VALID,0,VALID,21.5346,VALID,11,VALID,1.20113,
2007-06-23, 00:32:00,VALID,915.608,VALID,0,VALID,100,VALID,-0.0169808,VALID,21.5379,VALID,17,VALID,1.18514,
2007-06-23, 00:33:00,VALID,915.641,VALID,0,VALID,100,VALID,-0.0339617,VALID,21.5511,VALID,10,VALID,1.13645,
2007-06-23, 00:34:00,VALID,915.657,VALID,0,VALID,100,VALID,0,VALID,21.5614,VALID,19,VALID,1.16388,
2007-06-23, 00:35:00,VALID,915.67,VALID,0,VALID,100,VALID,0.0169808,VALID,21.5609,VALID,5,VALID,1.09435,
2007-06-23, 00:36:00,VALID,915.682,VALID,0,VALID,100,VALID,0,VALID,21.5703,VALID,39,VALID,1.20944,
2007-06-23, 00:37:00,VALID,915.707,VALID,0,VALID,100,VALID,0.0169808,VALID,21.5931,VALID,11,VALID,0.462109,
2007-06-23, 00:38:00,VALID,915.714,VALID,0,VALID,100,VALID,-0.0169808,VALID,21.6061,VALID,347,VALID,0.12843,
2007-06-23, 00:39:00,VALID,915.717,VALID,0,VALID,100,VALID,0,VALID,21.6028,VALID,228,VALID,0.423735,
2007-06-23, 00:40:00,VALID,915.699,VALID,0,VALID,100,VALID,-0.0169808,VALID,21.5868,VALID,216,VALID,0.0857422,
2007-06-23, 00:41:00,VALID,915.708,VALID,0,VALID,100,VALID,0,VALID,21.5736,VALID,216,VALID,0.300521,
2007-06-23, 00:42:00,VALID,915.72,VALID,0,VALID,100,VALID,-0.0169808,VALID,21.5668,VALID,216,VALID,0.280185,
2007-06-23, 00:43:00,VALID,915.732,VALID,0,VALID,100,VALID,-0.0169808,VALID,21.5609,VALID,231,VALID,0.375178,
2007-06-23, 00:44:00,VALID,915.729,VALID,0,VALID,100,VALID,-0.0509425,VALID,21.5647,VALID,232,VALID,0.266768,
2007-06-23, 00:45:00,VALID,915.747,VALID,0,VALID,100,VALID,0.0169808,VALID,21.5544,VALID,232,VALID,0.212426,
2007-06-23, 00:46:00,VALID,915.769,VALID,0,VALID,100,VALID,-0.0169808,VALID,21.5476,VALID,232,VALID,0.0714286,
2007-06-23, 00:47:00,VALID,915.803,VALID,0,VALID,100,VALID,0.0169808,VALID,21.5576,VALID,232,VALID,0.000355114,
2007-06-23, 00:48:00,VALID,915.824,VALID,0,VALID,100,VALID,-0.0169808,VALID,21.5676,VALID,232,VALID,0.0948153,
2007-06-23, 00:49:00,VALID,915.859,VALID,0,VALID,100,VALID,-0.0509425,VALID,21.5709,VALID,232,VALID,0,
2007-06-23, 00:50:00,VALID,915.893,VALID,0,VALID,100,VALID,-0.0169808,VALID,21.5674,VALID,232,VALID,0,
2007-06-23, 00:51:00,VALID,915.917,VALID,0,VALID,100,VALID,0,VALID,21.5812,VALID,232,VALID,0.0497332,
2007-06-23, 00:52:00,VALID,915.916,VALID,0,VALID,100,VALID,-0.0169808,VALID,21.5774,VALID,232,VALID,0.043968,
2007-06-23, 00:53:00,VALID,915.93,VALID,0,VALID,100,VALID,0.0169808,VALID,21.5774,VALID,232,VALID,0.107973,
2007-06-23, 00:54:00,VALID,915.931,VALID,0,VALID,100,VALID,0,VALID,21.5676,VALID,232,VALID,0.0930233,
2007-06-23, 00:55:00,VALID,915.923,VALID,0,VALID,100,VALID,-0.0339617,VALID,21.5641,VALID,232,VALID,0.00195313,
2007-06-23, 00:56:00,VALID,915.894,VALID,0,VALID,100,VALID,-0.0339617,VALID,21.5747,VALID,232,VALID,0.0950521,
2007-06-23, 00:57:00,VALID,915.885,VALID,0,VALID,100,VALID,-0.0169808,VALID,21.5741,VALID,232,VALID,0.00223214,
2007-06-23, 00:58:00,VALID,915.879,VALID,0,VALID,100,VALID,0,VALID,21.5868,VALID,232,VALID,0.0188953,
2007-06-23, 00:59:00,VALID,915.85,VALID,0,VALID,100,VALID,0,VALID,21.5768,VALID,232,VALID,0.0964134,
2007-06-23, 01:00:00,VALID,915.842,VALID,0,VALID,100,VALID,-0.0169808,VALID,21.5768,VALID,232,VALID,0.143169,
2007-06-23, 01:01:00,VALID,915.832,VALID,0,VALID,100,VALID,0.0169808,VALID,21.5866,VALID,232,VALID,0.160689,
2007-06-23, 01:02:00,VALID,915.821,VALID,0,VALID,100,VALID,0,VALID,21.5733,VALID,232,VALID,0.350694,
2007-06-23, 01:03:00,VALID,915.819,VALID,0,VALID,100,VALID,0,VALID,21.5766,VALID,232,VALID,0.3879,
2007-06-23, 01:04:00,VALID,915.803,VALID,0,VALID,100,VALID,0,VALID,21.5636,VALID,232,VALID,0.136896,
2007-06-23, 01:05:00,VALID,915.795,VALID,0,VALID,100,VALID,0.0169808,VALID,21.5671,VALID,233,VALID,0.449041,
2007-06-23, 01:06:00,VALID,915.79,VALID,0,VALID,100,VALID,0,VALID,21.5606,VALID,246,VALID,0.834872,
2007-06-23, 01:07:00,VALID,915.767,VALID,0,VALID,100,VALID,0.0339617,VALID,21.5701,VALID,250,VALID,0.829055,
2007-06-23, 01:08:00,VALID,915.74,VALID,0,VALID,100,VALID,-0.0169808,VALID,21.5668,VALID,250,VALID,0.501116,
2007-06-23, 01:09:00,VALID,915.719,VALID,0,VALID,100,VALID,0,VALID,21.5633,VALID,250,VALID,0.495066,
2007-06-23, 01:10:00,VALID,915.708,VALID,0,VALID,100,VALID,0.0339617,VALID,21.5503,VALID,236,VALID,0.476563,
2007-06-23, 01:11:00,VALID,915.705,VALID,0,VALID,100,VALID,0.0339617,VALID,21.5408,VALID,220,VALID,0.599787,
2007-06-23, 01:12:00,VALID,915.71,VALID,0,VALID,100,VALID,-0.0169808,VALID,21.5344,VALID,219,VALID,0.232922,
2007-06-23, 01:13:00,VALID,915.725,VALID,0,VALID,100,VALID,0,VALID,21.5249,VALID,217,VALID,0.301491,
2007-06-23, 01:14:00,VALID,915.746,VALID,0,VALID,100,VALID,-0.0679233,VALID,21.5192,VALID,238,VALID,0.331522,
2007-06-23, 01:15:00,VALID,915.75,VALID,0,VALID,100,VALID,-0.118866,VALID,21.5065,VALID,256,VALID,0.340116,
2007-06-23, 01:16:00,VALID,915.76,VALID,0,VALID,100,VALID,-0.0849042,VALID,21.51,VALID,256,VALID,0.373512,
2007-06-23, 01:17:00,VALID,915.743,VALID,0,VALID,100,VALID,-0.101885,VALID,21.51,VALID,256,VALID,0.384973,
2007-06-23, 01:18:00,VALID,915.728,VALID,0,VALID,100,VALID,-0.118866,VALID,21.5005,VALID,256,VALID,0.0592607,
2007-06-23, 01:19:00,VALID,915.713,VALID,0,VALID,100,VALID,-0.101885,VALID,21.5038,VALID,256,VALID,0,
2007-06-23, 01:20:00,VALID,915.705,VALID,0,VALID,100,VALID,-0.118866,VALID,21.4941,VALID,256,VALID,0.0267361,
2007-06-23, 01:21:00,VALID,915.711,VALID,0,VALID,100,VALID,-0.101885,VALID,21.4973,VALID,256,VALID,0.0320312,
2007-06-23, 01:22:00,VALID,915.726,VALID,0,VALID,100,VALID,-0.101885,VALID,21.4938,VALID,256,VALID,0.0146723,
2007-06-23, 01:23:00,VALID,915.746,VALID,0,VALID,100,VALID,-0.0849042,VALID,21.5035,VALID,256,VALID,0,
2007-06-23, 01:24:00,VALID,915.761,VALID,0,VALID,100,VALID,-0.118866,VALID,21.497,VALID,256,VALID,0,
2007-06-23, 01:25:00,VALID,915.773,VALID,0,VALID,100,VALID,-0.101885,VALID,21.4938,VALID,256,VALID,0.119531,
2007-06-23, 01:26:00,VALID,915.764,VALID,0,VALID,100,VALID,-0.118866,VALID,21.5003,VALID,256,VALID,0.380814,
2007-06-23, 01:27:00,VALID,915.759,VALID,0,VALID,100,VALID,-0.101885,VALID,21.5103,VALID,256,VALID,0.441406,
2007-06-23, 01:28:00,VALID,915.743,VALID,0,VALID,100,VALID,-0.0849042,VALID,21.5195,VALID,256,VALID,0.212843,
2007-06-23, 01:29:00,VALID,915.742,VALID,0,VALID,100,VALID,-0.101885,VALID,21.5363,VALID,256,VALID,0.043679,
2007-06-23, 01:30:00,VALID,915.74,VALID,0,VALID,100,VALID,-0.0849042,VALID,21.5522,VALID,276,VALID,0.426781,
2007-06-23, 01:31:00,VALID,915.734,VALID,0,VALID,100,VALID,-0.101885,VALID,21.5785,VALID,5,VALID,0.943945,
2007-06-23, 01:32:00,VALID,915.725,VALID,0,VALID,100,VALID,-0.0849042,VALID,21.5812,VALID,30,VALID,0.922075,
2007-06-23, 01:33:00,VALID,915.724,VALID,0,VALID,100,VALID,-0.101885,VALID,21.5977,VALID,30,VALID,0.753634,
2007-06-23, 01:34:00,VALID,915.715,VALID,0,VALID,100,VALID,-0.101885,VALID,21.5915,VALID,30,VALID,0.655869,
2007-06-23, 01:35:00,VALID,915.705,VALID,0,VALID,100,VALID,-0.0509425,VALID,21.5809,VALID,30,VALID,0.304688,
2007-06-23, 01:36:00,VALID,915.675,VALID,0,VALID,100,VALID,-0.101885,VALID,21.5804,VALID,30,VALID,0.908381,
2007-06-23, 01:37:00,VALID,915.652,VALID,0,VALID,100,VALID,-0.0849042,VALID,21.5544,VALID,32,VALID,1.04488,
2007-06-23, 01:38:00,VALID,915.618,VALID,0,VALID,100,VALID,-0.101885,VALID,21.5257,VALID,34,VALID,0.518229,
2007-06-23, 01:39:00,VALID,915.57,VALID,0,VALID,100,VALID,-0.0849042,VALID,21.506,VALID,37,VALID,0.394804,
2007-06-23, 01:40:00,VALID,915.549,VALID,0,VALID,100,VALID,-0.0679233,VALID,21.506,VALID,60,VALID,0.841319,
2007-06-23, 01:41:00,VALID,915.509,VALID,0,VALID,100,VALID,-0.0849042,VALID,21.51,VALID,56,VALID,1.18586,
2007-06-23, 01:42:00,VALID,915.489,VALID,0,VALID,100,VALID,-0.101885,VALID,21.4908,VALID,65,VALID,0.982558,
2007-06-23, 01:43:00,VALID,915.482,VALID,0,VALID,100,VALID,-0.101885,VALID,21.4543,VALID,78,VALID,0.605945,
2007-06-23, 01:44:00,VALID,915.481,VALID,0,VALID,100,VALID,-0.101885,VALID,21.4351,VALID,69,VALID,0.579985,
2007-06-23, 01:45:00,VALID,915.482,VALID,0,VALID,100,VALID,-0.0849042,VALID,21.4053,VALID,68,VALID,0.19494,
2007-06-23, 01:46:00,VALID,915.48,VALID,0,VALID,100,VALID,-0.101885,VALID,21.3964,VALID,115,VALID,0.530488,
2007-06-23, 01:47:00,VALID,915.476,VALID,0,VALID,100,VALID,-0.101885,VALID,21.3801,VALID,138,VALID,0.300781,
2007-06-23, 01:48:00,VALID,915.454,VALID,0,VALID,100,VALID,-0.118866,VALID,21.3737,VALID,140,VALID,0.26242,
2007-06-23, 01:49:00,VALID,915.445,VALID,0,VALID,100,VALID,-0.118866,VALID,21.3737,VALID,141,VALID,0.11942,
2007-06-23, 01:50:00,VALID,915.414,VALID,0,VALID,100,VALID,-0.101885,VALID,21.3766,VALID,141,VALID,0.256904,
2007-06-23, 01:51:00,VALID,915.397,VALID,0,VALID,100,VALID,-0.0849042,VALID,21.3837,VALID,141,VALID,0.0686384,
2007-06-23, 01:52:00,VALID,915.365,VALID,0,VALID,100,VALID,-0.0849042,VALID,21.3728,VALID,141,VALID,0.0410156,
2007-06-23, 01:53:00,VALID,915.337,VALID,0,VALID,100,VALID,-0.101885,VALID,21.3864,VALID,141,VALID,0,
2007-06-23, 01:54:00,VALID,915.301,VALID,0,VALID,100,VALID,-0.118866,VALID,21.3899,VALID,141,VALID,0,
2007-06-23, 01:55:00,VALID,915.261,VALID,0,VALID,100,VALID,-0.101885,VALID,21.3999,VALID,141,VALID,0,
2007-06-23, 01:56:00,VALID,915.236,VALID,0,VALID,100,VALID,-0.101885,VALID,21.3831,VALID,141,VALID,0.0539931,
2007-06-23, 01:57:00,VALID,915.207,VALID,0,VALID,100,VALID,-0.101885,VALID,21.3831,VALID,141,VALID,0.0015625,
2007-06-23, 01:58:00,VALID,915.184,VALID,0,VALID,100,VALID,-0.118866,VALID,21.3829,VALID,141,VALID,0,
2007-06-23, 01:59:00,VALID,915.164,VALID,0,VALID,100,VALID,-0.0679233,VALID,21.3761,VALID,141,VALID,0,
2007-06-23, 02:00:00,VALID,915.135,VALID,0,VALID,100,VALID,-0.0169808,VALID,21.3823,VALID,141,VALID,0,
2007-06-23, 02:01:00,VALID,915.118,VALID,0,VALID,100,VALID,0,VALID,21.3891,VALID,141,VALID,0,
2007-06-23, 02:02:00,VALID,915.119,VALID,0,VALID,100,VALID,0,VALID,21.3853,VALID,141,VALID,0,
2007-06-23, 02:03:00,VALID,915.082,VALID,0,VALID,100,VALID,-0.0169808,VALID,21.3823,VALID,141,VALID,0.125533,
2007-06-23, 02:04:00,VALID,915.063,VALID,0,VALID,100,VALID,0,VALID,21.3755,VALID,158,VALID,0.528888,
2007-06-23, 02:05:00,VALID,915.049,VALID,0,VALID,100,VALID,-0.0509425,VALID,21.3626,VALID,160,VALID,0.279576,
2007-06-23, 02:06:00,VALID,915.036,VALID,0,VALID,100,VALID,0,VALID,21.3496,VALID,160,VALID,0.114901,
2007-06-23, 02:07:00,VALID,915.018,VALID,0,VALID,100,VALID,-0.0169808,VALID,21.3398,VALID,160,VALID,0.122514,
2007-06-23, 02:08:00,VALID,915,VALID,0,VALID,100,VALID,-0.0169808,VALID,21.3363,VALID,160,VALID,0.330915,
2007-06-23, 02:09:00,VALID,914.986,VALID,0,VALID,100,VALID,-0.0339617,VALID,21.3412,VALID,152,VALID,0.384301,
2007-06-23, 02:10:00,VALID,914.967,VALID,0,VALID,100,VALID,-0.0679233,VALID,21.3206,VALID,135,VALID,0.501776,
2007-06-23, 02:11:00,VALID,914.946,VALID,0,VALID,100,VALID,-0.0169808,VALID,21.3106,VALID,130,VALID,0.558061,
2007-06-23, 02:12:00,VALID,914.93,VALID,0,VALID,100,VALID,-0.0169808,VALID,21.3174,VALID,100,VALID,0.662162,
2007-06-23, 02:13:00,VALID,914.942,VALID,0,VALID,100,VALID,-0.0509425,VALID,21.2976,VALID,85,VALID,0.659412,
2007-06-23, 02:14:00,VALID,914.932,VALID,0,VALID,100,VALID,-0.0339617,VALID,21.3179,VALID,76,VALID,0.568182,
2007-06-23, 02:15:00,VALID,914.916,VALID,0,VALID,100,VALID,-0.0339617,VALID,21.2979,VALID,74,VALID,0.607846,
2007-06-23, 02:16:00,VALID,914.906,VALID,0,VALID,100,VALID,-0.0509425,VALID,21.2917,VALID,74,VALID,0.431641,
2007-06-23, 02:17:00,VALID,914.895,VALID,0,VALID,100,VALID,-0.0169808,VALID,21.2887,VALID,74,VALID,0.401758,
2007-06-23, 02:18:00,VALID,914.896,VALID,0,VALID,100,VALID,0,VALID,21.2749,VALID,74,VALID,0.35665,
2007-06-23, 02:19:00,VALID,914.872,VALID,0,VALID,100,VALID,-0.0169808,VALID,21.2589,VALID,74,VALID,0.0807884,
2007-06-23, 02:20:00,VALID,914.868,VALID,0,VALID,100,VALID,-0.0339617,VALID,21.2592,VALID,74,VALID,0.0152853,
2007-06-23, 02:21:00,VALID,914.865,VALID,0,VALID,100,VALID,-0.0509425,VALID,21.256,VALID,74,VALID,0.131392,
2007-06-23, 02:22:00,VALID,914.86,VALID,0,VALID,100,VALID,-0.0509425,VALID,21.256,VALID,107,VALID,0.448401,
2007-06-23, 02:23:00,VALID,914.86,VALID,0,VALID,100,VALID,-0.0339617,VALID,21.2589,VALID,126,VALID,0.322856,
2007-06-23, 02:24:00,VALID,914.847,VALID,0,VALID,100,VALID,-0.0509425,VALID,21.2589,VALID,133,VALID,0.37358,
2007-06-23, 02:25:00,VALID,914.83,VALID,0,VALID,100,VALID,-0.0169808,VALID,21.2654,VALID,137,VALID,0.0499321,
2007-06-23, 02:26:00,VALID,914.823,VALID,0,VALID,100,VALID,-0.0339617,VALID,21.2687,VALID,137,VALID,0.258984,
2007-06-23, 02:27:00,VALID,914.826,VALID,0,VALID,100,VALID,0,VALID,21.2552,VALID,137,VALID,0.479992,
2007-06-23, 02:28:00,VALID,914.807,VALID,0,VALID,100,VALID,0,VALID,21.2424,VALID,136,VALID,0.433222,
2007-06-23, 02:29:00,VALID,914.797,VALID,0,VALID,100,VALID,-0.0339617,VALID,21.2365,VALID,132,VALID,0.477706,
2007-06-23, 02:30:00,VALID,914.795,VALID,0,VALID,100,VALID,-0.0339617,VALID,21.2427,VALID,129,VALID,0.478423,
2007-06-23, 02:31:00,VALID,914.791,VALID,0,VALID,100,VALID,-0.0169808,VALID,21.2324,VALID,125,VALID,0.461133,
2007-06-23, 02:32:00,VALID,914.789,VALID,0,VALID,100,VALID,0,VALID,21.2395,VALID,125,VALID,0.190341,
2007-06-23, 02:33:00,VALID,914.805,VALID,0,VALID,100,VALID,-0.0169808,VALID,21.2392,VALID,125,VALID,0.0390625,
2007-06-23, 02:34:00,VALID,914.817,VALID,0,VALID,100,VALID,-0.0509425,VALID,21.2392,VALID,125,VALID,0.296875,
2007-06-23, 02:35:00,VALID,914.821,VALID,0,VALID,100,VALID,0,VALID,21.2289,VALID,125,VALID,0.313281,
2007-06-23, 02:36:00,VALID,914.82,VALID,0,VALID,100,VALID,0,VALID,21.2322,VALID,125,VALID,0.124818,
2007-06-23, 02:37:00,VALID,914.849,VALID,0,VALID,100,VALID,0.0169808,VALID,21.2422,VALID,125,VALID,0.0126488,
2007-06-23, 02:38:00,VALID,914.871,VALID,0,VALID,100,VALID,0,VALID,21.2552,VALID,125,VALID,0.00426136,
2007-06-23, 02:39:00,VALID,914.903,VALID,0,VALID,100,VALID,-0.0169808,VALID,21.2657,VALID,122,VALID,0.271234,
2007-06-23, 02:40:00,VALID,914.927,VALID,0,VALID,100,VALID,0,VALID,21.2687,VALID,121,VALID,0.143674,
2007-06-23, 02:41:00,VALID,914.948,VALID,0,VALID,100,VALID,0,VALID,21.2684,VALID,121,VALID,0.156994,
2007-06-23, 02:42:00,VALID,914.959,VALID,0,VALID,100,VALID,-0.0339617,VALID,21.269,VALID,121,VALID,0.204649,
2007-06-23, 02:43:00,VALID,914.984,VALID,0,VALID,100,VALID,-0.0169808,VALID,21.2625,VALID,121,VALID,0.188045,
2007-06-23, 02:44:00,VALID,915.012,VALID,0,VALID,100,VALID,0.0339617,VALID,21.2838,VALID,91,VALID,0.286882,
2007-06-23, 02:45:00,VALID,915.027,VALID,0,VALID,100,VALID,0.0679233,VALID,21.2963,VALID,86,VALID,0.0737424,
2007-06-23, 02:46:00,VALID,915.033,VALID,0,VALID,100,VALID,0.101885,VALID,21.3025,VALID,86,VALID,0,
2007-06-23, 02:47:00,VALID,915.051,VALID,0,VALID,100,VALID,0.0679233,VALID,21.319,VALID,86,VALID,0,
2007-06-23, 02:48:00,VALID,915.056,VALID,0,VALID,100,VALID,0.0679233,VALID,21.3187,VALID,86,VALID,0,
2007-06-23, 02:49:00,VALID,915.077,VALID,0,VALID,100,VALID,0.0849042,VALID,21.3223,VALID,86,VALID,0,
2007-06-23, 02:50:00,VALID,915.075,VALID,0,VALID,100,VALID,0.101885,VALID,21.3388,VALID,85,VALID,0.062872,
2007-06-23, 02:51:00,VALID,915.063,VALID,0,VALID,100,VALID,0.0849042,VALID,21.332,VALID,79,VALID,0.109375,
2007-06-23, 02:52:00,VALID,915.056,VALID,0,VALID,100,VALID,0.0679233,VALID,21.3252,VALID,79,VALID,0.0866169,
2007-06-23, 02:53:00,VALID,915.026,VALID,0,VALID,100,VALID,0.0509425,VALID,21.3125,VALID,79,VALID,0,
2007-06-23, 02:54:00,VALID,914.99,VALID,0,VALID,100,VALID,0.0679233,VALID,21.3285,VALID,79,VALID,0,
2007-06-23, 02:55:00,VALID,914.95,VALID,0,VALID,100,VALID,0.0679233,VALID,21.3315,VALID,79,VALID,0.0655185,
2007-06-23, 02:56:00,VALID,914.926,VALID,0,VALID,100,VALID,0.0509425,VALID,21.335,VALID,79,VALID,0,
2007-06-23, 02:57:00,VALID,914.914,VALID,0,VALID,100,VALID,0.0679233,VALID,21.335,VALID,79,VALID,0,
2007-06-23, 02:58:00,VALID,914.9,VALID,0,VALID,100,VALID,0.0679233,VALID,21.3285,VALID,79,VALID,0,
2007-06-23, 02:59:00,VALID,914.901,VALID,0,VALID,100,VALID,0.0509425,VALID,21.3263,VALID,79,VALID,0,
2007-06-23, 03:00:00,VALID,914.922,VALID,0,VALID,100,VALID,0,VALID,21.3236,VALID,79,VALID,0,
2007-06-23, 03:01:00,VALID,914.921,VALID,0,VALID,100,VALID,-0.0679233,VALID,21.3439,VALID,79,VALID,0.0207698,
2007-06-23, 03:02:00,VALID,914.933,VALID,0,VALID,100,VALID,-0.0509425,VALID,21.3507,VALID,79,VALID,0.163707,
2007-06-23, 03:03:00,VALID,914.95,VALID,0,VALID,100,VALID,-0.101885,VALID,21.3336,VALID,72,VALID,0.480373,
2007-06-23, 03:04:00,VALID,914.962,VALID,0,VALID,100,VALID,-0.0169808,VALID,21.3174,VALID,51,VALID,0.648628,
2007-06-23, 03:05:00,VALID,914.963,VALID,0,VALID,100,VALID,0,VALID,21.3009,VALID,39,VALID,0.770032,
2007-06-23, 03:06:00,VALID,914.963,VALID,0,VALID,100,VALID,0,VALID,21.3114,VALID,40,VALID,0.800967,
2007-06-23, 03:07:00,VALID,914.971,VALID,0,VALID,100,VALID,-0.0509425,VALID,21.2782,VALID,39,VALID,0.763765,
2007-06-23, 03:08:00,VALID,914.958,VALID,0,VALID,100,VALID,-0.0509425,VALID,21.2922,VALID,41,VALID,0.748698,
2007-06-23, 03:09:00,VALID,914.969,VALID,0,VALID,100,VALID,-0.0169808,VALID,21.2911,VALID,39,VALID,0.777716,
2007-06-23, 03:10:00,VALID,914.951,VALID,0,VALID,100,VALID,-0.0339617,VALID,21.3044,VALID,36,VALID,0.795351,
2007-06-23, 03:11:00,VALID,914.949,VALID,0,VALID,100,VALID,-0.0339617,VALID,21.3241,VALID,33,VALID,0.77846,
2007-06-23, 03:12:00,VALID,914.948,VALID,0,VALID,100,VALID,-0.0679233,VALID,21.3471,VALID,34,VALID,0.700149,
2007-06-23, 03:13:00,VALID,914.924,VALID,0,VALID,100,VALID,-0.0169808,VALID,21.3528,VALID,40,VALID,0.888148,
2007-06-23, 03:14:00,VALID,914.896,VALID,0,VALID,100,VALID,-0.0339617,VALID,21.3691,VALID,39,VALID,0.635045,
2007-06-23, 03:15:00,VALID,914.888,VALID,0,VALID,100,VALID,-0.0679233,VALID,21.3793,VALID,39,VALID,0.484375,
2007-06-23, 03:16:00,VALID,914.884,VALID,0,VALID,100,VALID,-0.0339617,VALID,21.3899,VALID,39,VALID,0.560454,
2007-06-23, 03:17:00,VALID,914.872,VALID,0,VALID,100,VALID,-0.101885,VALID,21.3994,VALID,38,VALID,0.410866,
2007-06-23, 03:18:00,VALID,914.879,VALID,0,VALID,100,VALID,-0.0339617,VALID,21.3983,VALID,38,VALID,0.247768,
2007-06-23, 03:19:00,VALID,914.892,VALID,0,VALID,100,VALID,-0.0679233,VALID,21.4113,VALID,38,VALID,0.279474,
2007-06-23, 03:20:00,VALID,914.907,VALID,0,VALID,100,VALID,-0.0509425,VALID,21.4478,VALID,38,VALID,0.402058,
2007-06-23, 03:21:00,VALID,914.907,VALID,0,VALID,100,VALID,-0.0849042,VALID,21.4478,VALID,38,VALID,0.0575457,
2007-06-23, 03:22:00,VALID,914.933,VALID,0,VALID,100,VALID,-0.0849042,VALID,21.454,VALID,38,VALID,0.450457,
2007-06-23, 03:23:00,VALID,914.944,VALID,0,VALID,100,VALID,-0.0679233,VALID,21.464,VALID,38,VALID,0.0595238,
2007-06-23, 03:24:00,VALID,914.961,VALID,0,VALID,100,VALID,-0.0679233,VALID,21.4675,VALID,37,VALID,0.477108,
2007-06-23, 03:25:00,VALID,914.973,VALID,0,VALID,100,VALID,-0.0339617,VALID,21.4643,VALID,39,VALID,0.753634,
2007-06-23, 03:26:00,VALID,914.992,VALID,0,VALID,100,VALID,-0.0509425,VALID,21.4475,VALID,34,VALID,0.881882,
2007-06-23, 03:27:00,VALID,914.988,VALID,0,VALID,100,VALID,0,VALID,21.434,VALID,25,VALID,0.953683,
2007-06-23, 03:28:00,VALID,914.98,VALID,0,VALID,100,VALID,-0.0509425,VALID,21.4315,VALID,37,VALID,0.928299,
2007-06-23, 03:29:00,VALID,914.993,VALID,0,VALID,100,VALID,-0.0679233,VALID,21.4245,VALID,31,VALID,0.957889,
2007-06-23, 03:30:00,VALID,914.988,VALID,0,VALID,100,VALID,-0.0339617,VALID,21.4307,VALID,31,VALID,0.76391,
2007-06-23, 03:31:00,VALID,914.989,VALID,0,VALID,100,VALID,-0.0849042,VALID,21.4407,VALID,30,VALID,0.765053,
2007-06-23, 03:32:00,VALID,914.996,VALID,0,VALID,100,VALID,-0.0169808,VALID,21.4343,VALID,26,VALID,0.963423,
2007-06-23, 03:33:00,VALID,915.004,VALID,0,VALID,100,VALID,-0.0169808,VALID,21.418,VALID,10,VALID,0.982558,
2007-06-23, 03:34:00,VALID,915.013,VALID,0,VALID,100,VALID,-0.0169808,VALID,21.4015,VALID,7,VALID,0.879001,
2007-06-23, 03:35:00,VALID,915.015,VALID,0,VALID,100,VALID,-0.0169808,VALID,21.4053,VALID,26,VALID,0.81179,
2007-06-23, 03:36:00,VALID,915.001,VALID,0,VALID,100,VALID,-0.0509425,VALID,21.4121,VALID,26,VALID,0.65554,
2007-06-23, 03:37:00,VALID,915.018,VALID,0,VALID,100,VALID,-0.0169808,VALID,21.4118,VALID,30,VALID,0.729759,
2007-06-23, 03:38:00,VALID,915.015,VALID,0,VALID,100,VALID,-0.0509425,VALID,21.4248,VALID,30,VALID,0.496271,
2007-06-23, 03:39:00,VALID,915.023,VALID,0,VALID,100,VALID,-0.0169808,VALID,21.418,VALID,33,VALID,1.00053,
2007-06-23, 03:40:00,VALID,915.031,VALID,0,VALID,100,VALID,-0.0509425,VALID,21.4121,VALID,31,VALID,0.800145,
2007-06-23, 03:41:00,VALID,915.033,VALID,0,VALID,100,VALID,-0.0509425,VALID,21.4048,VALID,29,VALID,0.881392,